Total_Precipitation_Accumulation
0.44 0.44 0.59 0.56 0.49 0.45 0.45 0.52 0.63 0.74 0.76 0.75 0.74 0.78 0.82 0.84 0.96 1.06 1.06 1.07 1.21 1.43 1.74 2.11 2.45 2.65 2.78 2.95 3.00 3.01 3.05 2.96 2.82 2.67 2.64 2.64 2.71 2.72 2.77 2.78 2.86 2.71 2.43
0.38 0.39 0.49 0.52 0.47 0.48 0.49 0.54 0.66 0.76 0.75 0.80 0.80 0.81 0.90 0.98 0.98 0.98 1.02 1.07 1.27 1.49 1.70 1.91 2.14 2.46 2.59 2.66 2.69 2.89 3.01 2.83 2.98 3.25 3.39 3.17 3.01 2.87 3.06 2.99 3.05 3.07 2.51
0.32 0.38 0.41 0.56 0.51 0.49 0.50 0.55 0.63 0.76 0.80 0.88 0.91 0.90 0.96 1.04 1.00 0.94 1.03 1.16 1.41 1.66 1.82 1.96 2.14 2.48 2.69 2.63 2.71 2.93 3.14 3.16 3.29 3.70 4.07 3.52 3.32 3.20 2.93 2.77 2.67 2.54 2.25
0.51 0.48 0.43 0.57 0.58 0.51 0.51 0.58 0.68 0.81 0.86 0.99 0.98 0.87 0.93 1.00 1.02 0.98 1.04 1.17 1.46 1.78 2.02 2.05 2.10 2.32 2.36 2.37 2.61 2.91 3.11 3.21 3.47 3.73 3.92 3.76 3.68 3.72 3.24 2.82 2.62 2.50 2.22
0.70 0.59 0.54 0.64 0.67 0.64 0.62 0.65 0.72 0.84 0.92 1.01 0.93 0.95 1.02 1.08 1.08 1.06 1.05 1.13 1.37 1.84 2.11 2.06 2.07 2.09 2.12 2.24 2.44 2.65 2.96 3.25 3.52 3.60 3.93 4.31 4.46 4.26 3.40 2.82 2.66 2.65 2.36
0.65 0.57 0.53 0.61 0.63 0.67 0.63 0.63 0.77 0.84 0.95 1.05 1.10 1.11 1.13 1.27 1.29 1.17 1.18 1.30 1.45 1.81 2.09 2.10 2.13 2.10 2.06 2.19 2.29 2.41 2.65 3.10 3.29 3.31 3.99 4.20 4.02 4.18 3.59 3.07 2.84 2.64 2.33
0.66 0.60 0.53 0.57 0.63 0.66 0.69 0.71 0.88 0.98 1.07 1.22 1.27 1.23 1.26 1.36 1.39 1.32 1.37 1.47 1.65 1.79 1.97 1.98 1.96 1.94 1.88 2.04 2.10 2.23 2.34 2.72 2.80 3.51 3.72 3.70 3.81 4.14 3.88 3.44 3.14 2.76 2.40
0.83 0.73 0.62 0.61 0.74 0.85 0.86 0.86 1.00 1.04 1.16 1.28 1.37 1.34 1.29 1.27 1.25 1.26 1.38 1.50 1.72 1.87 1.85 1.68 1.64 1.67 1.73 1.84 1.98 2.17 2.24 2.16 2.21 2.84 3.22 3.27 3.31 3.77 3.99 3.54 3.10 2.84 2.61
0.91 0.76 0.70 0.66 0.85 1.07 1.10 1.03 1.03 1.03 1.17 1.31 1.44 1.46 1.33 1.22 1.16 1.20 1.28 1.37 1.58 1.65 1.54 1.48 1.50 1.46 1.50 1.67 1.98 1.99 2.04 2.18 2.16 2.62 2.80 3.01 2.86 3.38 3.91 3.69 3.10 2.81 2.73
1.18 1.01 0.97 0.94 1.01 1.08 1.11 1.16 1.12 1.11 1.25 1.37 1.43 1.46 1.41 1.33 1.27 1.31 1.25 1.37 1.50 1.60 1.62 1.63 1.57 1.48 1.47 1.56 1.86 2.00 2.04 2.07 2.01 2.34 3.14 3.02 2.76 3.53 3.95 3.77 3.33 3.03 2.87
1.41 1.45 1.36 1.28 1.28 1.24 1.21 1.22 1.33 1.35 1.41 1.42 1.48 1.46 1.42 1.46 1.53 1.52 1.39 1.51 1.63 1.78 1.92 1.89 1.79 1.73 1.65 1.65 1.81 1.91 1.95 1.68 1.99 2.63 3.25 3.13 3.09 3.76 4.00 3.81 3.56 3.32 3.10
1.73 1.77 1.75 1.74 1.70 1.64 1.57 1.74 1.83 1.62 1.56 1.52 1.69 1.53 1.51 1.81 1.91 1.72 1.88 2.06 2.26 2.31 2.26 2.12 2.01 1.90 1.73 1.63 1.75 1.80 1.61 1.70 2.29 2.88 2.98 2.85 3.38 4.02 4.23 3.92 3.69 3.60 3.42
2.09 1.82 1.75 2.02 2.13 2.19 2.31 2.21 2.20 2.17 2.14 2.05 2.16 2.03 2.05 2.22 2.15 2.24 2.35 2.29 2.31 2.40 2.30 2.33 2.14 1.78 1.59 1.72 1.83 1.77 1.79 1.88 2.27 2.74 2.93 2.95 3.54 4.17 4.45 4.28 3.93 3.83 3.83
2.38 2.18 1.95 2.02 2.11 2.30 2.50 2.49 2.44 2.36 2.30 2.24 2.36 2.21 2.37 2.58 2.70 2.78 2.88 2.66 2.60 2.55 2.66 2.63 2.47 2.10 1.83 1.79 1.76 1.82 1.97 2.01 2.21 2.61 2.83 2.64 3.11 3.86 4.43 4.51 4.24 4.08 4.04
2.76 2.63 2.46 2.22 2.19 2.38 2.68 2.82 2.78 2.84 2.67 2.72 2.86 2.66 2.63 2.71 2.79 3.14 3.21 3.41 3.02 2.92 3.09 3.04 2.77 2.61 2.34 2.14 2.05 2.03 2.16 2.16 2.22 2.49 2.64 2.58 2.87 3.48 4.13 4.47 4.52 4.45 4.38
3.40 3.06 2.79 2.64 2.53 2.52 2.66 2.98 3.10 2.94 2.97 3.00 3.13 3.04 2.98 3.02 3.14 3.49 3.66 3.76 3.50 3.52 3.76 3.77 3.50 3.27 2.98 2.87 2.61 2.59 2.54 2.57 2.80 2.83 2.83 2.75 2.72 2.96 3.68 4.25 4.59 4.81 4.78
3.65 3.48 3.21 3.10 3.13 2.92 2.84 3.13 3.26 3.16 3.10 3.15 3.36 3.43 3.30 3.37 3.70 3.83 4.18 4.17 3.96 3.93 3.99 3.98 4.21 4.11 3.58 3.31 3.20 3.13 3.03 2.92 3.14 3.29 3.39 3.22 2.93 2.95 3.24 3.81 4.18 4.39 4.57
3.88 3.67 3.52 3.15 3.15 3.36 3.35 3.64 3.58 3.66 3.80 3.77 3.81 3.99 3.90 3.93 4.05 4.10 4.15 4.24 4.18 4.15 4.48 4.69 4.61 4.53 4.28 3.93 3.80 3.52 3.30 3.31 3.13 3.16 3.29 3.22 3.20 2.91 2.84 3.04 3.41 3.59 3.96
3.35 3.47 3.54 3.46 3.41 3.46 3.66 4.09 4.23 4.44 4.61 4.76 4.80 5.00 4.88 4.63 4.53 4.62 4.60 4.77 4.62 4.68 4.72 4.57 5.01 4.99 4.88 4.42 3.90 3.67 3.32 3.29 3.22 2.91 2.95 3.01 3.03 2.91 2.87 2.82 3.11 3.34 3.63
3.35 3.48 3.57 3.75 3.96 3.95 4.02 4.35 4.82 5.04 5.15 5.48 5.51 5.51 5.55 5.52 5.38 5.40 5.36 5.41 5.26 5.12 5.07 5.07 5.19 4.94 4.77 4.51 3.92 3.60 3.23 2.87 2.82 2.82 2.61 2.80 2.72 2.50 2.72 2.93 3.05 2.92 3.33
3.48 3.68 3.59 3.79 4.21 4.49 4.89 4.94 5.18 5.63 5.96 6.05 6.09 6.05 5.94 5.87 5.92 5.80 5.63 5.79 5.60 5.34 5.13 5.12 5.11 4.98 4.60 4.56 4.57 4.06 3.32 2.85 2.63 2.47 2.51 2.62 2.50 2.47 2.78 2.89 2.84 2.76 2.75
3.47 3.71 3.84 3.99 4.50 4.99 5.56 6.10 6.50 6.92 6.95 7.06 6.98 6.85 6.47 6.28 6.23 6.06 6.08 5.89 5.69 5.59 5.32 5.12 5.10 4.98 4.59 4.65 4.68 4.67 3.84 3.24 2.57 2.01 2.15 2.23 2.23 2.32 2.47 2.49 2.49 2.58 2.60
3.52 3.76 3.93 4.28 4.89 5.73 6.36 6.89 7.43 7.77 7.50 7.27 6.95 6.76 6.62 6.59 6.55 6.42 6.36 6.07 5.85 5.61 5.27 5.00 4.88 4.81 4.69 4.69 4.54 4.67 4.09 3.37 2.79 2.24 1.94 1.89 2.04 2.23 2.25 2.37 2.30 2.32 2.41
3.56 3.70 3.91 4.57 5.26 5.93 6.60 7.26 7.81 8.06 8.05 7.81 7.22 6.72 6.33 6.08 5.83 5.75 5.79 5.66 5.48 5.18 4.95 4.61 4.52 4.47 4.64 4.45 4.41 4.18 3.87 3.53 3.30 2.81 2.31 2.08 2.10 2.08 2.12 2.14 2.16 2.25 2.32
3.25 3.66 3.97 4.66 5.42 6.10 6.90 7.66 8.06 8.22 8.16 7.77 6.98 6.22 5.69 5.34 5.02 4.81 4.86 4.80 4.64 4.44 4.28 4.23 4.30 4.20 4.14 3.96 3.88 3.91 3.95 3.87 3.44 3.07 2.69 2.43 2.33 2.18 2.17 2.17 2.30 2.33 2.32
3.07 3.52 4.05 4.43 5.11 5.95 6.56 7.09 7.26 7.38 7.31 6.87 6.39 5.85 5.47 4.97 4.49 4.12 4.00 3.94 3.77 3.61 3.62 3.65 3.76 3.72 3.76 3.77 3.70 3.57 3.58 3.59 3.35 3.24 2.90 2.61 2.56 2.36 2.25 2.16 2.13 2.22 2.29